User: anonymous   Login
Location: Skalnate Pleso
(49.1889°N, 20.2450°E)
Time: 09:54:45
(UTC+02:00)
Language:

Iridium 45 - Orbit

View from above orbital plane
View from above orbital plane
View from above satellite
View from above satellite

Ground track
Ground track

The orbit data is extracted from the following two-line orbital elements,

1 25104U 97082A   16144.33503729  .00000221  00000-0  71669-4 0  9994
2 25104  86.3963  90.2315 0003278 102.1881 257.9682 14.34216666964490
Epoch (UTC): 23 May 2016 08:02:27
Eccentricity: 0.0003278
inclination: 86.3963°
perigee height: 775 km
apogee height: 780 km
right ascension of ascending node: 90.2315°
argument of perigee: 102.1881°
revolutions per day: 14.34216666
mean anomaly at epoch: 257.9682°
orbit number at epoch: 96449

The dashed part of the orbit path shows where the satellite is in the earth's shadow,  

DLR